EW4964 Weather Reports


Display with metric or nautical units.
time (UTC)temp
F
wind
direction
speed
MPH
gust
MPH
rain 1hr
in
rain 24hr
in
rain mn
in
humidity
%
barometer
mb
20190120053005 20 152 3.0 6.0 0.00 0.01 0.00 77 1011.8
20190120051505 19 142 3.0 5.0 0.00 0.01 0.00 77 1011.9
20190120050005 19 168 3.0 5.0 0.00 0.01 0.00 76 1011.9
20190120044504 20 168 3.0 5.0 0.00 0.01 0.00 76 1011.7
20190120043005 20 170 3.0 6.0 0.00 0.01 0.00 76 1011.8
20190120041505 20 163 4.0 6.0 0.00 0.01 0.00 75 1011.8
20190120040005 20 156 4.0 7.0 0.00 0.01 0.00 75 1011.8
20190120034505 20 141 4.0 5.0 0.00 0.01 0.00 75 1011.8
20190120033005 21 149 4.0 5.0 0.00 0.01 0.00 76 1011.9
20190120031504 21 157 4.0 7.0 0.00 0.01 0.00 76 1011.9
20190120030004 21 148 4.0 7.0 0.00 0.01 0.00 77 1012.1
20190120024504 21 154 4.0 7.0 0.00 0.01 0.00 77 1012.2
20190120023004 21 155 5.0 8.0 0.00 0.01 0.00 77 1012.2
20190120021504 21 154 5.0 9.0 0.00 0.01 0.00 78 1012.3
20190120020007 21 142 6.0 8.0 0.00 0.01 0.00 78 1012.4
20190120014507 20 148 5.0 8.0 0.00 0.01 0.00 77 1012.5
20190120013007 20 148 5.0 8.0 0.00 0.01 0.00 76 1012.7
20190120011507 20 143 5.0 8.0 0.00 0.01 0.00 75 1012.8
20190120010006 20 150 4.0 8.0 0.00 0.01 0.00 75 1013.0
20190120004507 20 148 5.0 8.0 0.00 0.01 0.00 76 1013.2
20190120003007 21 148 5.0 7.0 0.00 0.01 0.00 76 1013.0
20190120001507 21 141 5.0 8.0 0.00 0.01 0.00 77 1013.1
20190120000006 21 160 5.0 8.0 0.00 0.01 0.00 77 1013.3
20190119234506 21 153 5.0 8.0 0.00 0.01 0.00 77 1013.2
20190119233007 21 152 5.0 8.0 0.00 0.01 0.00 78 1013.4
20190119231507 21 158 5.0 10.0 0.00 0.01 0.00 78 1013.4
20190119230007 21 162 5.0 9.0 0.00 0.01 0.00 79 1013.6
20190119224506 21 170 5.0 8.0 0.00 0.01 0.01 81 1013.8
20190119223006 21 159 6.0 10.0 0.00 0.01 0.01 81 1013.8
20190119221507 21 170 5.0 7.0 0.00 0.01 0.01 81 1013.7
20190119220007 20 169 5.0 8.0 0.00 0.01 0.01 81 1013.8
20190119214507 20 164 4.0 8.0 0.00 0.01 0.01 81 1013.9
20190119213007 20 152 4.0 7.0 0.00 0.01 0.01 81 1014.2
20190119211506 20 156 4.0 9.0 0.00 0.01 0.01 81 1014.0
20190119210006 19 161 5.0 7.0 0.00 0.01 0.01 80 1014.1
20190119204507 19 152 6.0 8.0 0.00 0.01 0.01 79 1014.1
20190119203007 18 148 5.0 7.0 0.00 0.01 0.01 78 1014.3
20190119201506 18 148 5.0 10.0 0.00 0.01 0.01 78 1014.5
20190119200007 19 165 5.0 8.0 0.00 0.01 0.01 79 1014.4
20190119194506 19 148 5.0 8.0 0.00 0.01 0.01 79 1014.6
20190119193006 19 150 6.0 9.0 0.00 0.01 0.01 78 1014.4
20190119191509 18 143 5.0 9.0 0.00 0.01 0.01 76 1014.8
20190119190007 18 149 5.0 8.0 0.00 0.01 0.01 75 1014.5
20190119184505 18 148 4.0 6.0 0.00 0.01 0.01 75 1014.7
20190119183005 18 143 4.0 6.0 0.00 0.01 0.01 74 1014.7
20190119181506 18 147 4.0 5.0 0.00 0.01 0.01 74 1014.7
20190119180008 18 151 4.0 8.0 0.00 0.01 0.01 74 1014.8
20190119174505 18 154 4.0 6.0 0.00 0.01 0.01 74 1014.8
20190119173006 18 154 5.0 8.0 0.00 0.01 0.01 72 1014.7
20190119171505 17 138 4.0 6.0 0.00 0.01 0.01 70 1014.7
20190119170006 17 144 3.0 4.0 0.00 0.01 0.01 68 1015.1
20190119164505 18 150 3.0 4.0 0.00 0.01 0.01 67 1015.3
20190119163006 18 141 2.0 4.0 0.00 0.01 0.01 66 1015.1
20190119161505 18 142 2.0 4.0 0.00 0.01 0.01 64 1015.1
20190119160005 18 138 2.0 4.0 0.00 0.01 0.01 64 1015.3
20190119154506 18 135 1.0 3.0 0.00 0.01 0.01 63 1015.2
20190119153006 19 144 1.0 4.0 0.00 0.01 0.01 62 1015.5
20190119151506 20 136 2.0 3.0 0.00 0.01 0.01 62 1015.5
20190119150006 22 164 2.0 5.0 0.00 0.01 0.01 62 1015.6
20190119144506 22 164 2.0 4.0 0.00 0.01 0.01 62 1015.5
20190119143006 22 164 3.0 5.0 0.00 0.01 0.01 61 1015.7
20190119141505 22 168 4.0 5.0 0.00 0.01 0.01 61 1015.5
20190119140006 22 168 3.0 6.0 0.00 0.01 0.01 61 1015.8
20190119134506 23 149 4.0 8.0 0.00 0.01 0.01 60 1015.9
20190119133006 23 157 3.0 5.0 0.00 0.01 0.01 60 1015.9
20190119131506 23 168 3.0 5.0 0.00 0.01 0.01 61 1016.0
20190119130006 24 197 4.0 7.0 0.00 0.01 0.01 61 1016.2
20190119124505 24 188 4.0 8.0 0.00 0.01 0.01 61 1016.3
20190119123005 24 176 4.0 7.0 0.01 0.01 0.01 63 1016.3
20190119121505 24 186 1.0 3.0 0.01 0.01 0.01 66 1016.5
20190119120006 24 178 2.0 4.0 0.01 0.01 0.01 66 1016.6
20190119114510 24 185 2.0 4.0 0.01 0.01 0.01 66 1016.6
20190119113007 24 187 2.0 4.0 0.00 0.00 0.00 67 1016.9
20190119111505 24 178 2.0 4.0 0.00 0.00 0.00 66 1016.7
20190119110006 24 181 2.0 4.0 0.00 0.00 0.00 66 1017.0
20190119104505 23 177 2.0 4.0 0.00 0.00 0.00 67 1016.9
20190119103005 23 188 2.0 3.0 0.00 0.00 0.00 68 1017.1
20190119101508 23 179 2.0 4.0 0.00 0.00 0.00 67 1017.3
20190119100008 22 155 2.0 4.0 0.00 0.00 0.00 66 1017.2
20190119094507 22 155 1.0 3.0 0.00 0.00 0.00 66 1017.1
20190119093006 21 199 2.0 4.0 0.00 0.00 0.00 67 1017.1
20190119091510 21 201 1.0 3.0 0.00 0.00 0.00 67 1017.1
20190119090008 21 265 0.0 2.0 0.00 0.00 0.00 70 1016.8
20190119084506 20 230 1.0 3.0 0.00 0.00 0.00 71 1016.9
20190119083005 19 355 0.0 2.0 0.00 0.00 0.00 71 1017.0
20190119081505 18 1 0.0 2.0 0.00 0.00 0.00 71 1016.9
20190119080005 17 10 0.0 2.0 0.00 0.00 0.00 71 1017.0
20190119074505 16 127 0.0 2.0 0.00 0.00 0.00 71 1016.9
20190119073005 15 90 1.0 2.0 0.00 0.00 0.00 70 1016.7
20190119071505 15 167 0.0 2.0 0.00 0.00 0.00 70 1016.8
20190119070006 15 80 1.0 3.0 0.00 0.00 0.00 71 1016.3
20190119064505 16 66 2.0 3.0 0.00 0.00 0.00 71 1016.4
20190119063005 16 73 2.0 4.0 0.00 0.00 0.00 72 1016.4
20190119061505 15 54 2.0 4.0 0.00 0.00 0.00 72 1016.1
20190119060005 15 68 2.0 4.0 0.00 0.00 0.00 72 1016.3
20190119054504 14 78 1.0 3.0 0.00 0.00 0.00 71 1016.4